Swanton, VT

4:00 PM EDT on August 29, 2016 (GMT -0400)
Franklin County State

Weather History for KFSO - November, 2013

Change the Weather History Date:

Wednesday, November 27, 2013

  Actual Average (KPBG) Record (KPBG)
Temperature  
Mean Temperature 34 °F 32 °F  
Max Temperature 38 °F 41 °F 64 °F (2015)
Min Temperature 30 °F 24 °F 3 °F (1949)
Degree Days  
Heating Degree Days 31 33  
Month to date heating degree days 749  
Since 1 July heating degree days 1532  
Cooling Degree Days 0 0  
Month to date cooling degree days 0  
Year to date cooling degree days 346  
Moisture  
Dew Point 33 °F    
Average Humidity 91    
Maximum Humidity 93    
Minimum Humidity 84    
Precipitation  
Precipitation 0.00 in - 0.85 in (1979)
Month to date precipitation  
Year to date precipitation  
Sea Level Pressure  
Sea Level Pressure 29.54 in    
Wind  
Wind Speed 4 mph (WNW)    
Max Wind Speed 10 mph    
Max Gust Speed 23 mph    
Visibility 4 miles    
Events Snow    
T = Trace of Precipitation, MM = Missing Value Source: NWS Daily Summary

Daily Weather History Graph

Daily Weather History Graph

Search for Another Location

Airport or City:

Trip Planner

Search our weather history database for the weather conditions in past years. The results will help you decide how hot, cold, wet, or windy it might be!

Date:

Astronomy

Nov. 27, 2013 Rise Set
Actual Time 7:05 AM EST 4:14 PM EST
Civil Twilight 6:32 AM EST 4:47 PM EST
Nautical Twilight 5:56 AM EST 5:23 PM EST
Astronomical Twilight 5:21 AM EST 5:58 PM EST
Moon 12:50 AM EST (11/27) 1:03 PM EST (11/27)
Length of Visible Light 10h 14m
Length of Day
9h 08m
Waning Crescent, 32% of the Moon is Illuminated
Nov 27
Waning Crescent
Dec 2
New
Dec 9
First Quarter
Dec 17
Full
Dec 25
Last Quarter

Hourly Weather History & Observations

Time (EST) Temp. Windchill Dew Point Humidity Pressure Visibility Wind Dir Wind Speed Gust Speed Precip Events Conditions
12:15 AM 35.6 °F 32.8 °F 33.1 °F 91% 29.94 in 4.0 mi SE 3.5 mph - N/A Snow Light Snow
12:35 AM 35.6 °F 32.8 °F 33.1 °F 91% 29.93 in 5.0 mi SE 3.5 mph - N/A Snow Light Snow
12:55 AM 35.6 °F 32.8 °F 33.1 °F 91% 29.91 in 5.0 mi SSE 3.5 mph - N/A   Overcast
1:15 AM 35.6 °F - 33.1 °F 91% 29.90 in 5.0 mi Calm Calm - N/A   Overcast
1:35 AM 35.6 °F - 33.3 °F 91% 29.89 in 4.0 mi Calm Calm - N/A   Overcast
1:55 AM 35.6 °F - 33.3 °F 91% 29.87 in 3.0 mi Calm Calm - N/A   Overcast
2:15 AM 35.6 °F - 33.3 °F 91% 29.86 in 2.0 mi Calm Calm - N/A   Overcast
2:35 AM 35.6 °F - 33.4 °F 92% 29.83 in 2.0 mi Calm Calm - N/A   Unknown
2:55 AM 35.6 °F 32.8 °F 33.4 °F 92% 29.80 in 3.0 mi ENE 3.5 mph - N/A   Unknown
3:15 AM 35.6 °F 32.8 °F 33.4 °F 92% 29.78 in 4.0 mi ENE 3.5 mph - N/A   Mostly Cloudy
3:35 AM 35.6 °F 31.7 °F 33.4 °F 92% 29.76 in 3.0 mi ENE 4.6 mph - N/A Snow Light Snow
3:55 AM 35.6 °F 31.7 °F 33.4 °F 92% 29.73 in 4.0 mi East 4.6 mph - N/A Snow Light Snow
4:15 AM 35.6 °F 29.9 °F 33.4 °F 92% 29.71 in 5.0 mi East 6.9 mph - N/A Snow Light Snow
4:35 AM 37.6 °F 34.0 °F 35.1 °F 91% 29.68 in 4.0 mi ENE 4.6 mph - N/A   Overcast
4:55 AM 35.6 °F 30.7 °F 33.1 °F 91% 29.63 in 2.0 mi NNE 5.8 mph - N/A Snow Light Snow
5:15 AM 35.6 °F 30.7 °F 33.3 °F 91% 29.60 in 4.0 mi North 5.8 mph - N/A   Overcast
5:35 AM 35.6 °F 32.8 °F 33.4 °F 92% 29.61 in 2.5 mi NW 3.5 mph - N/A Snow Light Snow
5:55 AM 35.6 °F 32.8 °F 33.4 °F 92% 29.59 in 2.0 mi NNW 3.5 mph - N/A Snow Light Snow
6:15 AM 35.6 °F 32.8 °F 33.4 °F 92% 29.57 in 1.8 mi NW 3.5 mph - N/A Snow Light Snow
6:35 AM 35.6 °F 30.7 °F 33.4 °F 92% 29.56 in 1.5 mi NNW 5.8 mph - N/A Snow Light Snow
6:55 AM 36.9 °F 32.2 °F 34.9 °F 93% 29.54 in 1.8 mi NNE 5.8 mph - N/A Snow Light Snow
7:15 AM 36.9 °F 33.1 °F 34.7 °F 92% 29.53 in 2.0 mi NNW 4.6 mph - N/A Snow Light Snow
7:35 AM 36.5 °F 32.7 °F 34.3 °F 92% 29.51 in 1.5 mi North 4.6 mph - N/A   Overcast
7:55 AM 36.5 °F 31.8 °F 34.3 °F 92% 29.49 in 1.8 mi NNE 5.8 mph - N/A   Overcast
8:15 AM 37.2 °F 32.6 °F 35.1 °F 92% 29.48 in 2.0 mi NNE 5.8 mph - N/A   Overcast
8:35 AM 38.3 °F 35.9 °F 36.1 °F 92% 29.47 in 2.0 mi NE 3.5 mph - N/A   Overcast
8:55 AM 38.3 °F 35.9 °F 36.1 °F 92% 29.45 in 1.8 mi NNE 3.5 mph - N/A   Overcast
9:15 AM 38.3 °F 35.9 °F 36.1 °F 92% 29.44 in 3.0 mi NE 3.5 mph - N/A   Overcast
9:35 AM 38.3 °F 33.9 °F 36.1 °F 92% 29.43 in 3.0 mi East 5.8 mph - N/A   Overcast
9:55 AM 38.3 °F 33.2 °F 36.1 °F 92% 29.40 in 4.0 mi East 6.9 mph - N/A   Overcast
10:15 AM 38.3 °F - 36.1 °F 92% 29.40 in 3.0 mi Calm Calm - N/A   Overcast
10:35 AM 38.3 °F 34.8 °F 36.1 °F 92% 29.41 in 2.5 mi West 4.6 mph - N/A   Overcast
10:55 AM 37.4 °F - 35.2 °F 92% 29.41 in 0.8 mi Calm Calm - N/A   Overcast
11:15 AM 37.0 °F 32.4 °F 34.9 °F 92% 29.42 in 1.0 mi WNW 5.8 mph - N/A   Overcast
11:35 AM 36.0 °F 29.6 °F 33.8 °F 92% 29.42 in 3.0 mi West 8.1 mph - N/A   Overcast
11:55 AM 35.6 °F 31.7 °F 33.4 °F 92% 29.41 in 5.0 mi WNW 4.6 mph - N/A   Overcast
12:15 PM 35.6 °F 31.7 °F 33.4 °F 92% 29.41 in 3.0 mi WNW 4.6 mph - N/A   Overcast
12:35 PM 35.6 °F 32.8 °F 33.4 °F 92% 29.41 in 3.0 mi WNW 3.5 mph - N/A   Overcast
12:55 PM 35.6 °F - 33.4 °F 92% 29.42 in 3.0 mi Calm Calm - N/A   Overcast
1:15 PM 35.6 °F 32.8 °F 33.4 °F 92% 29.43 in 2.5 mi NW 3.5 mph - N/A   Overcast
1:35 PM 35.6 °F 32.8 °F 33.4 °F 92% 29.40 in 5.0 mi WNW 3.5 mph - N/A   Overcast
1:55 PM 35.6 °F 31.7 °F 33.4 °F 92% 29.42 in 3.0 mi West 4.6 mph - N/A   Overcast
2:15 PM 35.6 °F 32.8 °F 33.4 °F 92% 29.41 in 3.0 mi WNW 3.5 mph - N/A   Overcast
2:35 PM 35.6 °F 31.7 °F 33.4 °F 92% 29.44 in 10.0 mi WNW 4.6 mph - N/A   Overcast
2:55 PM 35.6 °F 31.7 °F 33.4 °F 92% 29.41 in 10.0 mi West 4.6 mph - N/A   Overcast
3:15 PM 35.6 °F 32.8 °F 33.4 °F 92% 29.44 in 10.0 mi WSW 3.5 mph - N/A   Overcast
3:35 PM 35.6 °F 31.7 °F 33.4 °F 92% 29.44 in 10.0 mi West 4.6 mph - N/A   Overcast
3:55 PM 35.6 °F 31.7 °F 33.4 °F 92% 29.43 in 10.0 mi WNW 4.6 mph - N/A   Overcast
4:15 PM 35.6 °F 30.7 °F 33.4 °F 92% 29.40 in 10.0 mi West 5.8 mph - N/A Snow Light Snow
4:35 PM 35.6 °F 32.8 °F 33.4 °F 92% 29.43 in 4.0 mi West 3.5 mph - N/A Snow Light Snow
4:55 PM 35.6 °F 31.7 °F 33.3 °F 91% 29.43 in 3.0 mi West 4.6 mph - N/A Snow Light Snow
5:15 PM 35.6 °F 31.7 °F 33.4 °F 92% 29.43 in 2.5 mi West 4.6 mph - N/A Snow Light Snow
5:35 PM 35.6 °F 31.7 °F 33.4 °F 92% 29.44 in 1.8 mi WSW 4.6 mph - N/A Snow Light Snow
5:55 PM 35.6 °F 32.8 °F 33.4 °F 92% 29.45 in 1.5 mi West 3.5 mph - N/A Snow Light Snow
6:15 PM 35.6 °F 32.8 °F 33.4 °F 92% 29.44 in 1.5 mi West 3.5 mph - N/A Snow Light Snow
6:35 PM 35.6 °F 31.7 °F 33.4 °F 92% 29.44 in 1.2 mi West 4.6 mph - N/A Snow Light Snow
6:55 PM 35.6 °F 30.7 °F 33.4 °F 92% 29.46 in 1.2 mi West 5.8 mph - N/A Snow Light Snow
7:15 PM 35.6 °F 29.9 °F 33.4 °F 92% 29.46 in 2.5 mi West 6.9 mph - N/A Snow Light Snow
7:35 PM 35.6 °F 30.7 °F 33.4 °F 92% 29.45 in 2.0 mi West 5.8 mph - N/A Snow Light Snow
7:55 PM 35.6 °F 29.9 °F 33.4 °F 92% 29.46 in 2.0 mi West 6.9 mph - N/A Snow Light Snow
8:15 PM 35.6 °F 28.6 °F 33.4 °F 92% 29.46 in 4.0 mi West 9.2 mph - N/A Snow Light Snow
8:35 PM 35.6 °F 29.9 °F 33.4 °F 92% 29.48 in 1.8 mi West 6.9 mph 16.1 mph N/A Snow Light Snow
8:55 PM 35.6 °F 28.0 °F 33.3 °F 91% 29.49 in 4.0 mi West 10.4 mph 18.4 mph N/A Snow Light Snow
9:15 PM 33.1 °F 26.9 °F 31.1 °F 92% 29.51 in 5.0 mi West 6.9 mph - N/A   Overcast
9:35 PM 33.1 °F 26.1 °F 30.9 °F 92% 29.50 in 10.0 mi West 8.1 mph 17.3 mph N/A   Overcast
9:55 PM 32.0 °F 24.2 °F 29.7 °F 91% 29.50 in 7.0 mi WNW 9.2 mph - N/A Snow Light Snow
10:15 PM 32.0 °F 25.6 °F 29.1 °F 89% 29.50 in 4.0 mi West 6.9 mph - N/A Snow Light Snow
10:35 PM 31.1 °F 25.4 °F 28.2 °F 89% 29.50 in 2.0 mi West 5.8 mph 16.1 mph N/A Snow Light Snow
10:55 PM 30.9 °F 23.5 °F 27.7 °F 88% 29.50 in 5.0 mi West 8.1 mph - N/A Snow Light Snow
11:15 PM 30.9 °F 22.8 °F 27.5 °F 87% 29.50 in 10.0 mi West 9.2 mph - N/A Snow Light Snow
11:35 PM 30.9 °F 22.8 °F 27.1 °F 86% 29.51 in 5.0 mi West 9.2 mph 21.9 mph N/A Snow Light Snow
11:55 PM 30.9 °F 22.2 °F 26.6 °F 84% 29.52 in 7.0 mi West 10.4 mph 23.0 mph N/A Snow Light Snow